^^
Station Historical Data
 
Daily Summary for December 19, 2018 Units:  English    Metric   Both
« Previous Day
Next Day »
Daily Weekly Monthly Yearly Custom
  Current: High: Low: Average:
Temperature: 41.5 °F TemperatureF °F 40.4 °F 42.7 °F
Dew Point: 38.5 °F DewpointF °F 35.8 °F 37.8 °F
Humidity: 89% Humidity% 76% 82%
Wind Speed: 0mph WindSpeedMPHmph 0mph 0mph
Wind Gust: 0mph WindSpeedGustMPHmph - -
WindCalm - - North
Pressure: 30.37 in PressureIn in 30.33 in -
Precipitation: 0 in      
Historical Graphs
 
 
Tabular Data for December 19, 2018
Time Temperature Dew Point Pressure Wind Wind Speed Wind Gust Humidity Rainfall Rate (Hourly) solar Conditions
TemperatureF °F DewpointF °F PressureIn in Calm     Humidity% HourlyPrecipIn in SolarRadiationWatts/m^2 W/m2 Conditions
00:03 47.2 °F 40.4 °F 30.38 in Calm     77% 0 in 0.00 W/m2 FEW
00:09 47 °F 40.2 °F 30.38 in Calm     77% 0 in 0.00 W/m2 FEW
00:14 46.9 °F 39.7 °F 30.38 in Calm     76% 0 in 0.00 W/m2 FEW
00:19 46.7 °F 39.5 °F 30.38 in Calm     76% 0 in 0.00 W/m2 FEW
00:23 46.6 °F 39.8 °F 30.38 in Calm     77% 0 in 0.00 W/m2 CLR
00:29 46.3 °F 39.1 °F 30.38 in Calm     76% 0 in 0.00 W/m2 CLR
00:34 46.1 °F 39 °F 30.38 in Calm     76% 0 in 0.00 W/m2 CLR
00:39 45.9 °F 39.1 °F 30.38 in Calm     77% 0 in 0.00 W/m2 CLR
00:44 45.7 °F 38.9 °F 30.38 in Calm     77% 0 in 0.00 W/m2 CLR
00:49 45.5 °F 39 °F 30.38 in Calm     78% 0 in 0.00 W/m2 CLR
00:54 45.3 °F 38.8 °F 30.38 in Calm     78% 0 in 0.00 W/m2 CLR
00:58 45.1 °F 38.6 °F 30.38 in Calm     78% 0 in 0.00 W/m2 CLR
01:04 45 °F 38.6 °F 30.38 in Calm     78% 0 in 0.00 W/m2 CLR
01:09 44.8 °F 38.4 °F 30.38 in Calm     78% 0 in 0.00 W/m2 CLR
01:14 44.7 °F 38.3 °F 30.38 in Calm     78% 0 in 0.00 W/m2 CLR
01:19 44.5 °F 38.4 °F 30.38 in Calm     79% 0 in 0.00 W/m2 CLR
01:24 44.4 °F 38.3 °F 30.38 in Calm     79% 0 in 0.00 W/m2 CLR
01:28 44.3 °F 38.2 °F 30.38 in Calm     79% 0 in 0.00 W/m2 CLR
01:34 44.2 °F 38.4 °F 30.38 in Calm     80% 0 in 0.00 W/m2 CLR
01:39 44.2 °F 38.4 °F 30.37 in Calm     80% 0 in 0.00 W/m2 CLR
01:44 44.1 °F 38.3 °F 30.37 in Calm     80% 0 in 0.00 W/m2 CLR
01:49 44 °F 38.5 °F 30.37 in Calm     81% 0 in 0.00 W/m2 CLR
01:54 44 °F 38.5 °F 30.37 in Calm     81% 0 in 0.00 W/m2 CLR
01:58 44 °F 38.5 °F 30.37 in Calm     81% 0 in 0.00 W/m2 CLR
02:04 43.9 °F 38.4 °F 30.37 in Calm     81% 0 in 0.00 W/m2 CLR
02:09 43.8 °F 38.7 °F 30.37 in Calm     82% 0 in 0.00 W/m2 CLR
02:14 43.8 °F 38.7 °F 30.36 in Calm     82% 0 in 0.00 W/m2 CLR
02:18 43.8 °F 38.7 °F 30.36 in Calm     82% 0 in 0.00 W/m2 CLR
02:24 43.7 °F 38.6 °F 30.36 in Calm     82% 0 in 0.00 W/m2 CLR
02:28 43.7 °F 38.6 °F 30.36 in Calm     82% 0 in 0.00 W/m2 CLR
02:34 43.6 °F 38.5 °F 30.36 in Calm     82% 0 in 0.00 W/m2 CLR
02:39 43.6 °F 38.5 °F 30.36 in Calm     82% 0 in 0.00 W/m2 CLR
02:44 43.5 °F 38.7 °F 30.35 in Calm     83% 0 in 0.00 W/m2 CLR
02:49 43.5 °F 38.7 °F 30.35 in Calm     83% 0 in 0.00 W/m2 CLR
02:53 43.5 °F 38.7 °F 30.35 in Calm     83% 0 in 0.00 W/m2 CLR
02:59 43.4 °F 38.9 °F 30.36 in Calm     84% 0 in 0.00 W/m2 CLR
03:04 43.4 °F 38.9 °F 30.36 in Calm     84% 0 in 0.00 W/m2 CLR
03:09 43.4 °F 38.9 °F 30.36 in Calm     84% 0 in 0.00 W/m2 CLR
03:14 43.4 °F 38.9 °F 30.36 in Calm     84% 0 in 0.00 W/m2 CLR
03:19 43.3 °F 38.8 °F 30.35 in Calm     84% 0 in 0.00 W/m2 CLR
03:23 43.3 °F 38.8 °F 30.34 in Calm     84% 0 in 0.00 W/m2 CLR
03:29 43.3 °F 38.8 °F 30.34 in Calm     84% 0 in 0.00 W/m2 CLR
03:34 43.2 °F 38.7 °F 30.34 in Calm     84% 0 in 0.00 W/m2 CLR
03:39 43.2 °F 38.7 °F 30.34 in Calm     84% 0 in 0.00 W/m2 CLR
03:44 43.1 °F 38.6 °F 30.34 in Calm     84% 0 in 0.00 W/m2 CLR
03:49 43.1 °F 38.6 °F 30.34 in Calm     84% 0 in 0.00 W/m2 CLR
03:53 43 °F 38.5 °F 30.33 in Calm     84% 0 in 0.00 W/m2 CLR
03:59 43 °F 38.5 °F 30.34 in Calm     84% 0 in 0.00 W/m2 CLR
04:04 43 °F 38.8 °F 30.34 in Calm     85% 0 in 0.00 W/m2 CLR
04:09 43 °F 38.8 °F 30.34 in Calm     85% 0 in 0.00 W/m2 CLR
04:13 43 °F 38.8 °F 30.34 in Calm     85% 0 in 0.00 W/m2 CLR
04:19 43.1 °F 38.9 °F 30.34 in Calm     85% 0 in 0.00 W/m2 CLR
04:23 43.1 °F 38.9 °F 30.34 in Calm     85% 0 in 0.00 W/m2 CLR
04:29 43.2 °F 39 °F 30.33 in Calm     85% 0 in 0.00 W/m2 CLR
04:34 43.2 °F 39 °F 30.33 in Calm     85% 0 in 0.00 W/m2 CLR
04:39 43.2 °F 39 °F 30.33 in Calm     85% 0 in 0.00 W/m2 CLR
04:43 43.3 °F 39.1 °F 30.33 in Calm     85% 0 in 0.00 W/m2 CLR
04:49 43.3 °F 39.1 °F 30.33 in Calm     85% 0 in 0.00 W/m2 CLR
04:53 43.3 °F 39.1 °F 30.33 in Calm     85% 0 in 0.00 W/m2 CLR
04:59 43.3 °F 39.1 °F 30.33 in Calm     85% 0 in 0.00 W/m2 CLR
05:04 43.3 °F 38.8 °F 30.34 in Calm     84% 0 in 0.00 W/m2 CLR
05:09 43.3 °F 38.8 °F 30.34 in Calm     84% 0 in 0.00 W/m2 CLR
05:14 43.3 °F 38.8 °F 30.34 in Calm     84% 0 in 0.00 W/m2 CLR
05:18 43.3 °F 38.8 °F 30.33 in Calm     84% 0 in 0.00 W/m2 CLR
05:24 43.3 °F 38.8 °F 30.34 in Calm     84% 0 in 0.00 W/m2 CLR
05:29 43.3 °F 38.8 °F 30.33 in Calm     84% 0 in 0.00 W/m2 CLR
05:34 43.3 °F 38.8 °F 30.34 in Calm     84% 0 in 0.00 W/m2 CLR
05:39 43.2 °F 38.4 °F 30.34 in Calm     83% 0 in 0.00 W/m2 CLR
05:44 43.2 °F 38.4 °F 30.34 in Calm     83% 0 in 0.00 W/m2 CLR
05:48 43.2 °F 38.4 °F 30.34 in Calm     83% 0 in 0.00 W/m2 CLR
05:54 43.1 °F 38.3 °F 30.33 in Calm     83% 0 in 0.00 W/m2 CLR
05:59 43 °F 38.2 °F 30.33 in Calm     83% 0 in 0.00 W/m2 CLR
06:04 42.9 °F 38.1 °F 30.34 in Calm     83% 0 in 0.00 W/m2 CLR
06:08 42.9 °F 38.1 °F 30.34 in Calm     83% 0 in 0.00 W/m2 CLR
06:14 42.7 °F 37.9 °F 30.34 in Calm     83% 0 in 0.00 W/m2 CLR
06:18 42.6 °F 37.8 °F 30.33 in Calm     83% 0 in 0.00 W/m2 CLR
06:24 42.4 °F 37.6 °F 30.34 in Calm     83% 0 in 0.00 W/m2 CLR
06:29 42.3 °F 37.5 °F 30.34 in Calm     83% 0 in 0.00 W/m2 CLR
06:34 42.1 °F 37.3 °F 30.33 in Calm     83% 0 in 0.00 W/m2 CLR
06:38 42 °F 36.9 °F 30.33 in Calm     82% 0 in 0.00 W/m2 CLR
06:44 41.9 °F 37.1 °F 30.34 in Calm     83% 0 in 0.00 W/m2 CLR
06:48 41.8 °F 37 °F 30.34 in Calm     83% 0 in 0.00 W/m2 CLR
06:54 41.6 °F 36.8 °F 30.34 in Calm     83% 0 in 0.00 W/m2 CLR
06:59 41.5 °F 36.7 °F 30.34 in Calm     83% 0 in 0.00 W/m2 CLR
07:04 41.5 °F 36.7 °F 30.35 in Calm     83% 0 in 0.00 W/m2 CLR
07:09 41.4 °F 36.6 °F 30.35 in Calm     83% 0 in 0.00 W/m2 CLR
07:13 41.3 °F 36.5 °F 30.35 in Calm     83% 0 in 0.00 W/m2 CLR
07:19 41.2 °F 36.4 °F 30.35 in Calm     83% 0 in 0.00 W/m2 CLR
07:24 41.1 °F 36.3 °F 30.35 in Calm     83% 0 in 0.00 W/m2 CLR
07:29 41 °F 36.2 °F 30.35 in Calm     83% 0 in 5.00 W/m2 CLR
07:34 40.9 °F 36.1 °F 30.35 in Calm     83% 0 in 7.00 W/m2 CLR
07:39 40.8 °F 36 °F 30.36 in Calm     83% 0 in 9.00 W/m2 CLR
07:43 40.7 °F 35.9 °F 30.36 in Calm     83% 0 in 14.00 W/m2 CLR
07:49 40.6 °F 35.8 °F 30.36 in Calm     83% 0 in 16.00 W/m2 CLR
07:54 40.5 °F 36 °F 30.36 in Calm     84% 0 in 14.00 W/m2 CLR
07:59 40.5 °F 36 °F 30.36 in Calm     84% 0 in 18.00 W/m2 CLR
08:04 40.4 °F 35.9 °F 30.36 in Calm     84% 0 in 16.00 W/m2 CLR
08:09 40.4 °F 36.2 °F 30.37 in Calm     85% 0 in 18.00 W/m2 CLR
08:13 40.4 °F 36.2 °F 30.37 in Calm     85% 0 in 25.00 W/m2 CLR
08:19 40.4 °F 36.5 °F 30.37 in Calm     86% 0 in 28.00 W/m2 CLR
08:24 40.5 °F 36.6 °F 30.37 in Calm     86% 0 in 30.00 W/m2 CLR
08:29 40.6 °F 37 °F 30.37 in Calm     87% 0 in 32.00 W/m2 CLR
08:34 40.7 °F 37.1 °F 30.37 in Calm     87% 0 in 35.00 W/m2 CLR
08:39 40.9 °F 37.6 °F 30.38 in Calm     88% 0 in 33.00 W/m2 CLR
08:43 41.2 °F 37.9 °F 30.38 in Calm     88% 0 in 39.00 W/m2 CLR
08:49 41.5 °F 38.5 °F 30.37 in Calm     89% 0 in 37.00 W/m2 CLR
El Dorado Weather
Compliments of Weather Underground - 2 mb




Google